Time,TemperatureF,DewpointF,PressureIn,WindDirection,WindDirectionDegrees,WindSpeedMPH,WindSpeedGustMPH,Humidity,HourlyPrecipIn,Conditions,Clouds,dailyrainin,SolarRadiationWatts/m^2,SoftwareType,DateUTC
2013-01-11 00:03:00,33.0,33.0,-100.00,SSE,150,14.0,20.0,100,0.00,,,0.14,0.000000,,2013-01-11 06:03:00,
2013-01-11 00:11:00,33.0,33.0,-100.00,SSE,148,13.0,20.0,100,0.00,,,0.14,0.000000,,2013-01-11 06:11:00,
2013-01-11 00:33:00,33.0,33.0,-100.00,SSE,148,13.0,20.0,100,0.00,,,0.14,0.000000,,2013-01-11 06:33:00,
2013-01-11 00:42:00,33.0,33.0,-100.00,SSE,148,13.0,20.0,100,0.00,,,0.14,0.000000,,2013-01-11 06:42:00,
2013-01-11 00:52:00,33.0,33.0,-100.00,SSE,148,13.0,20.0,100,0.00,,,0.14,0.000000,,2013-01-11 06:52:00,
2013-01-11 01:02:00,33.0,33.0,-100.00,SSE,148,13.0,20.0,100,0.00,,,0.14,0.000000,,2013-01-11 07:02:00,
2013-01-11 01:11:00,33.0,33.0,-100.00,SE,146,12.0,18.0,100,0.00,,,0.14,0.000000,,2013-01-11 07:11:00,
2013-01-11 01:42:00,33.0,33.0,-100.00,SE,146,12.0,18.0,100,0.00,,,0.14,0.000000,,2013-01-11 07:42:00,
2013-01-11 01:52:00,33.0,33.0,-100.00,SE,146,12.0,18.0,100,0.00,,,0.14,0.000000,,2013-01-11 07:52:00,
2013-01-11 02:02:00,33.0,33.0,-100.00,SE,146,12.0,18.0,100,0.00,,,0.14,0.000000,,2013-01-11 08:02:00,
2013-01-11 02:11:00,33.0,33.0,-100.00,SE,145,12.0,16.0,100,0.00,,,0.14,0.000000,,2013-01-11 08:11:00,
2013-01-11 02:42:00,33.0,33.0,-100.00,SE,145,12.0,16.0,100,0.00,,,0.14,0.000000,,2013-01-11 08:42:00,
2013-01-11 02:53:00,33.0,33.0,-100.00,SE,145,12.0,16.0,100,0.00,,,0.14,0.000000,,2013-01-11 08:53:00,
2013-01-11 03:02:00,33.0,33.0,-100.00,SE,145,12.0,16.0,100,0.00,,,0.14,0.000000,,2013-01-11 09:02:00,
2013-01-11 03:11:00,33.0,33.0,-100.00,SE,145,11.0,17.0,100,0.00,,,0.14,0.000000,,2013-01-11 09:11:00,
2013-01-11 03:32:00,33.0,33.0,-100.00,SE,145,11.0,17.0,100,0.00,,,0.14,0.000000,,2013-01-11 09:32:00,
2013-01-11 03:42:00,33.0,33.0,-100.00,SE,145,11.0,17.0,100,0.00,,,0.14,0.000000,,2013-01-11 09:42:00,
2013-01-11 03:52:00,33.0,33.0,-100.00,SE,145,11.0,17.0,100,0.00,,,0.14,0.000000,,2013-01-11 09:52:00,
2013-01-11 04:02:00,33.0,33.0,-100.00,SE,145,11.0,17.0,100,0.00,,,0.14,0.000000,,2013-01-11 10:02:00,
2013-01-11 04:11:00,33.0,33.0,-100.00,SSE,152,11.0,16.0,100,0.00,,,0.14,0.000000,,2013-01-11 10:11:00,
2013-01-11 04:43:00,33.0,33.0,-100.00,SSE,152,11.0,16.0,100,0.00,,,0.14,0.000000,,2013-01-11 10:43:00,
2013-01-11 04:52:00,33.0,33.0,-100.00,SSE,152,11.0,16.0,100,0.00,,,0.14,0.000000,,2013-01-11 10:52:00,
2013-01-11 05:03:00,33.0,33.0,-100.00,SSE,152,11.0,16.0,100,0.00,,,0.14,0.000000,,2013-01-11 11:03:00,
2013-01-11 05:11:00,34.0,34.0,-100.00,SSE,151,12.0,17.0,100,0.00,,,0.14,0.000000,,2013-01-11 11:11:00,
2013-01-11 05:33:00,34.0,34.0,-100.00,SSE,151,12.0,17.0,100,0.00,,,0.14,0.000000,,2013-01-11 11:33:00,
2013-01-11 05:43:00,34.0,34.0,-100.00,SSE,151,12.0,17.0,100,0.00,,,0.14,0.000000,,2013-01-11 11:43:00,
2013-01-11 05:53:00,34.0,34.0,-100.00,SSE,151,12.0,17.0,100,0.00,,,0.14,0.000000,,2013-01-11 11:53:00,
2013-01-11 06:03:00,34.0,34.0,-100.00,SSE,151,12.0,17.0,100,0.00,,,0.14,0.000000,,2013-01-11 12:03:00,
2013-01-11 06:11:00,34.0,34.0,-100.00,SSE,165,13.0,19.0,100,0.00,,,-99.99,0.000000,,2013-01-11 12:11:00,
2013-01-11 06:33:00,34.0,34.0,-100.00,SSE,165,13.0,19.0,100,0.00,,,-99.99,0.000000,,2013-01-11 12:33:00,
2013-01-11 06:43:00,34.0,34.0,-100.00,SSE,165,13.0,19.0,100,0.00,,,-99.99,0.000000,,2013-01-11 12:43:00,
2013-01-11 06:53:00,34.0,34.0,-100.00,SSE,165,13.0,19.0,100,0.00,,,-99.99,0.000000,,2013-01-11 12:53:00,
2013-01-11 07:03:00,34.0,34.0,-100.00,SSE,165,13.0,19.0,100,0.00,,,-99.99,0.000000,,2013-01-11 13:03:00,
2013-01-11 07:11:00,34.0,34.0,-100.00,SSE,158,10.0,16.0,100,0.00,,,-99.99,0.000000,,2013-01-11 13:11:00,
2013-01-11 07:43:00,34.0,34.0,-100.00,SSE,158,10.0,16.0,100,0.00,,,-99.99,0.000000,,2013-01-11 13:43:00,
2013-01-11 07:53:00,34.0,34.0,-100.00,SSE,158,10.0,16.0,100,0.00,,,-99.99,0.000000,,2013-01-11 13:53:00,
2013-01-11 08:03:00,34.0,34.0,-100.00,SSE,158,10.0,16.0,100,0.00,,,-99.99,0.000000,,2013-01-11 14:03:00,
2013-01-11 08:11:00,34.0,34.0,-100.00,SSE,160,12.0,16.0,100,0.00,,,0.14,6.000000,,2013-01-11 14:11:00,
2013-01-11 08:33:00,34.0,34.0,-100.00,SSE,160,12.0,16.0,100,0.00,,,0.14,6.000000,,2013-01-11 14:33:00,
2013-01-11 08:43:00,34.0,34.0,-100.00,SSE,160,12.0,16.0,100,0.00,,,0.14,6.000000,,2013-01-11 14:43:00,
2013-01-11 08:53:00,34.0,34.0,-100.00,SSE,160,12.0,16.0,100,0.00,,,0.14,6.000000,,2013-01-11 14:53:00,
2013-01-11 09:03:00,34.0,34.0,-100.00,SSE,160,12.0,16.0,100,0.00,,,0.14,6.000000,,2013-01-11 15:03:00,
2013-01-11 09:11:00,34.0,34.0,-100.00,South,172,10.0,17.0,100,0.00,,,0.14,29.000000,,2013-01-11 15:11:00,
2013-01-11 09:43:00,34.0,34.0,-100.00,South,172,10.0,17.0,100,0.00,,,0.14,29.000000,,2013-01-11 15:43:00,
2013-01-11 09:53:00,34.0,34.0,-100.00,South,172,10.0,17.0,100,0.00,,,0.14,29.000000,,2013-01-11 15:53:00,
2013-01-11 10:03:00,34.0,34.0,-100.00,South,172,10.0,17.0,100,0.00,,,0.14,29.000000,,2013-01-11 16:03:00,
2013-01-11 10:11:00,34.0,34.0,-100.00,SSE,160,10.0,13.0,100,0.00,,,0.14,62.000000,,2013-01-11 16:11:00,
2013-01-11 10:43:00,34.0,34.0,-100.00,SSE,160,10.0,13.0,100,0.00,,,0.14,62.000000,,2013-01-11 16:43:00,
2013-01-11 10:53:00,34.0,34.0,-100.00,SSE,160,10.0,13.0,100,0.00,,,0.14,62.000000,,2013-01-11 16:53:00,
2013-01-11 11:03:00,34.0,34.0,-100.00,SSE,160,10.0,13.0,100,0.00,,,0.14,62.000000,,2013-01-11 17:03:00,
2013-01-11 11:11:00,35.0,35.0,-100.00,SSE,155,10.0,13.0,100,0.00,,,0.14,123.000000,,2013-01-11 17:11:00,
2013-01-11 11:43:00,35.0,35.0,-100.00,SSE,155,10.0,13.0,100,0.00,,,0.14,123.000000,,2013-01-11 17:43:00,
2013-01-11 11:53:00,35.0,35.0,-100.00,SSE,155,10.0,13.0,100,0.00,,,0.14,123.000000,,2013-01-11 17:53:00,
2013-01-11 12:03:00,35.0,35.0,-100.00,SSE,155,10.0,13.0,100,0.00,,,0.14,123.000000,,2013-01-11 18:03:00,
2013-01-11 12:11:00,35.0,35.0,-100.00,SSE,156,10.0,14.0,100,0.00,,,0.14,144.000000,,2013-01-11 18:11:00,
2013-01-11 12:43:00,35.0,35.0,-100.00,SSE,156,10.0,14.0,100,0.00,,,0.14,144.000000,,2013-01-11 18:43:00,
2013-01-11 12:53:00,35.0,35.0,-100.00,SSE,156,10.0,14.0,100,0.00,,,0.14,144.000000,,2013-01-11 18:53:00,
2013-01-11 13:02:00,35.0,35.0,-100.00,SSE,156,10.0,14.0,100,0.00,,,0.14,144.000000,,2013-01-11 19:02:00,
2013-01-11 13:11:00,35.0,35.0,-100.00,SSE,161,9.0,13.0,100,0.00,,,0.14,148.000000,,2013-01-11 19:11:00,
2013-01-11 13:43:00,35.0,35.0,-100.00,SSE,161,9.0,13.0,100,0.00,,,0.14,148.000000,,2013-01-11 19:43:00,
2013-01-11 13:53:00,35.0,35.0,-100.00,SSE,161,9.0,13.0,100,0.00,,,0.14,148.000000,,2013-01-11 19:53:00,
2013-01-11 14:03:00,35.0,35.0,-100.00,SSE,161,9.0,13.0,100,0.00,,,0.14,148.000000,,2013-01-11 20:03:00,
2013-01-11 14:11:00,35.0,35.0,-100.00,SE,140,8.0,13.0,100,0.00,,,0.14,91.000000,,2013-01-11 20:11:00,
2013-01-11 14:33:00,35.0,35.0,-100.00,SE,140,8.0,13.0,100,0.00,,,0.14,91.000000,,2013-01-11 20:33:00,
2013-01-11 14:43:00,35.0,35.0,-100.00,SE,140,8.0,13.0,100,0.00,,,0.14,91.000000,,2013-01-11 20:43:00,
2013-01-11 14:53:00,35.0,35.0,-100.00,SE,140,8.0,13.0,100,0.00,,,0.14,91.000000,,2013-01-11 20:53:00,
2013-01-11 15:03:00,35.0,35.0,-100.00,SE,140,8.0,13.0,100,0.00,,,0.14,91.000000,,2013-01-11 21:03:00,
2013-01-11 15:11:00,35.0,35.0,-100.00,SE,129,6.0,10.0,100,0.00,,,0.14,69.000000,,2013-01-11 21:11:00,
2013-01-11 15:33:00,35.0,35.0,-100.00,SE,129,6.0,10.0,100,0.00,,,0.14,69.000000,,2013-01-11 21:33:00,
2013-01-11 15:43:00,35.0,35.0,-100.00,SE,129,6.0,10.0,100,0.00,,,0.14,69.000000,,2013-01-11 21:43:00,
2013-01-11 15:53:00,35.0,35.0,-100.00,SE,129,6.0,10.0,100,0.00,,,0.14,69.000000,,2013-01-11 21:53:00,
2013-01-11 16:02:00,35.0,35.0,-100.00,SE,129,6.0,10.0,100,0.00,,,0.14,69.000000,,2013-01-11 22:02:00,
2013-01-11 16:11:00,34.0,34.0,-100.00,ESE,120,6.0,9.0,100,0.00,,,0.14,31.000000,,2013-01-11 22:11:00,
2013-01-11 16:33:00,34.0,34.0,-100.00,ESE,120,6.0,9.0,100,0.00,,,0.14,31.000000,,2013-01-11 22:33:00,
2013-01-11 16:42:00,34.0,34.0,-100.00,ESE,120,6.0,9.0,100,0.00,,,0.14,31.000000,,2013-01-11 22:42:00,
2013-01-11 16:53:00,34.0,34.0,-100.00,ESE,120,6.0,9.0,100,0.00,,,0.14,31.000000,,2013-01-11 22:53:00,
2013-01-11 17:02:00,34.0,34.0,-100.00,ESE,120,6.0,9.0,100,0.00,,,0.14,31.000000,,2013-01-11 23:02:00,
2013-01-11 17:11:00,35.0,35.0,-100.00,SE,143,6.0,8.0,100,0.01,,,0.15,9.000000,,2013-01-11 23:11:00,
2013-01-11 17:33:00,35.0,35.0,-100.00,SE,143,6.0,8.0,100,0.01,,,0.15,9.000000,,2013-01-11 23:33:00,
2013-01-11 17:43:00,35.0,35.0,-100.00,SE,143,6.0,8.0,100,0.01,,,0.15,9.000000,,2013-01-11 23:43:00,
2013-01-11 17:53:00,35.0,35.0,-100.00,SE,143,6.0,8.0,100,0.01,,,0.15,9.000000,,2013-01-11 23:53:00,
2013-01-11 18:02:00,35.0,35.0,-100.00,SE,143,6.0,8.0,100,0.01,,,0.15,9.000000,,2013-01-12 00:02:00,
2013-01-11 18:11:00,36.0,36.0,-100.00,SE,141,7.0,9.0,100,0.01,,,0.12,0.000000,,2013-01-12 00:11:00,
2013-01-11 18:33:00,36.0,36.0,-100.00,SE,141,7.0,9.0,100,0.01,,,0.12,0.000000,,2013-01-12 00:33:00,
2013-01-11 18:43:00,36.0,36.0,-100.00,SE,141,7.0,9.0,100,0.01,,,0.12,0.000000,,2013-01-12 00:43:00,
2013-01-11 18:53:00,36.0,36.0,-100.00,SE,141,7.0,9.0,100,0.01,,,0.12,0.000000,,2013-01-12 00:53:00,
2013-01-11 19:02:00,36.0,36.0,-100.00,SE,141,7.0,9.0,100,0.01,,,0.12,0.000000,,2013-01-12 01:02:00,
2013-01-11 19:11:00,36.0,36.0,-100.00,SSE,167,10.0,13.0,100,0.00,,,0.05,0.000000,,2013-01-12 01:11:00,
2013-01-11 19:33:00,36.0,36.0,-100.00,SSE,167,10.0,13.0,100,0.00,,,0.05,0.000000,,2013-01-12 01:33:00,
2013-01-11 19:43:00,36.0,36.0,-100.00,SSE,167,10.0,13.0,100,0.00,,,0.05,0.000000,,2013-01-12 01:43:00,
2013-01-11 19:53:00,36.0,36.0,-100.00,SSE,167,10.0,13.0,100,0.00,,,0.05,0.000000,,2013-01-12 01:53:00,
2013-01-11 20:02:00,36.0,36.0,-100.00,SSE,167,10.0,13.0,100,0.00,,,0.05,0.000000,,2013-01-12 02:02:00,
2013-01-11 20:11:00,35.0,35.0,-100.00,South,175,9.0,13.0,100,0.01,,,-99.99,0.000000,,2013-01-12 02:11:00,
2013-01-11 20:33:00,35.0,35.0,-100.00,South,175,9.0,13.0,100,0.01,,,-99.99,0.000000,,2013-01-12 02:33:00,
2013-01-11 20:43:00,35.0,35.0,-100.00,South,175,9.0,13.0,100,0.01,,,-99.99,0.000000,,2013-01-12 02:43:00,
2013-01-11 20:53:00,35.0,35.0,-100.00,South,175,9.0,13.0,100,0.01,,,-99.99,0.000000,,2013-01-12 02:53:00,
2013-01-11 21:02:00,35.0,35.0,-100.00,South,175,9.0,13.0,100,0.01,,,-99.99,0.000000,,2013-01-12 03:02:00,
2013-01-11 21:11:00,35.0,35.0,-100.00,South,191,9.0,13.0,100,0.00,,,0.03,0.000000,,2013-01-12 03:11:00,
2013-01-11 21:33:00,35.0,35.0,-100.00,South,191,9.0,13.0,100,0.00,,,0.03,0.000000,,2013-01-12 03:33:00,
2013-01-11 21:43:00,35.0,35.0,-100.00,South,191,9.0,13.0,100,0.00,,,0.03,0.000000,,2013-01-12 03:43:00,
2013-01-11 21:53:00,35.0,35.0,-100.00,South,191,9.0,13.0,100,0.00,,,0.03,0.000000,,2013-01-12 03:53:00,
2013-01-11 22:02:00,35.0,35.0,-100.00,South,191,9.0,13.0,100,0.00,,,0.03,0.000000,,2013-01-12 04:02:00,
2013-01-11 22:11:00,35.0,35.0,-100.00,SW,228,12.0,17.0,100,0.00,,,0.03,0.000000,,2013-01-12 04:11:00,
2013-01-11 22:33:00,35.0,35.0,-100.00,SW,228,12.0,17.0,100,0.00,,,0.03,0.000000,,2013-01-12 04:33:00,
2013-01-11 22:43:00,35.0,35.0,-100.00,SW,228,12.0,17.0,100,0.00,,,0.03,0.000000,,2013-01-12 04:43:00,
2013-01-11 22:52:00,35.0,35.0,-100.00,SW,228,12.0,17.0,100,0.00,,,0.03,0.000000,,2013-01-12 04:52:00,
2013-01-11 23:03:00,35.0,35.0,-100.00,SW,228,12.0,17.0,100,0.00,,,0.03,0.000000,,2013-01-12 05:03:00,
2013-01-11 23:11:00,33.0,33.0,-100.00,WSW,254,8.0,15.0,100,0.00,,,0.03,0.000000,,2013-01-12 05:11:00,
2013-01-11 23:32:00,33.0,33.0,-100.00,WSW,254,8.0,15.0,100,0.00,,,0.03,0.000000,,2013-01-12 05:32:00,
2013-01-11 23:42:00,33.0,33.0,-100.00,WSW,254,8.0,15.0,100,0.00,,,0.03,0.000000,,2013-01-12 05:42:00,
2013-01-11 23:52:00,33.0,33.0,-100.00,WSW,254,8.0,15.0,100,0.00,,,0.03,0.000000,,2013-01-12 05:52:00,